Location: Bratislava
(48.1500°N, 17.1170°E)
Time: 21:51:24
(UTC+01:00)

N. Korean satellite - Pass Details

Date: 02 February 2019
Orbit: 456 x 510 km, 97.2° (Epoch: 20 February)

Event Time Altitude Azimuth Distance (km) Brightness Sun altitude
Rises 06:44:31 0° 5° (N) 2,593 10.1 -6.2°
Reaches altitude 10° 06:46:43 10° 358° (N) 1,696 9.1 -5.8°
Maximum altitude 06:50:06 37° 289° (WNW) 768 7.1 -5.3°
Drops below altitude 10° 06:53:24 10° 221° (SW) 1,653 9.1 -4.8°
Sets 06:55:31 0° 213° (SSW) 2,517 10.1 -4.4°
